COSMOS 1375 DEB

Satellite information

Favourite Embed

Satellite Type and Status

DEBRISIN ORBIT

Key statistics

Satellite COSMOS 1375 DEB at a glance.

Uptime

15842

Days in orbit

Revolutions

≈ 14.0

Per day

Orbit

LEO

Low Earth Orbit

Inclination

65.8

Latest

Satellite identification and parameters

Extended collection of information and parameters for COSMOS 1375 DEB.

Object identification

Identified? True

Debris? True

Object name: COSMOS 1375 DEB

International designator: 1982-055AL

Object number (NORAD): 17794

Object ID (CCSDS): 17794

Country: COMMONWEALTH OF INDEPENDENT STATES (CIS)

Current information (Y/N): Y

RCS size: SMALL

Orbital parameters

Period: 102.792 minutes

Inclination: 65.8159 deg

SMA: 7268.885 km

Apoapsis: 915.433 km

Periapsis: 866.066 km

RAAN: 169.5686 deg

Eccentricy: 0.0033958

Argument of periapsis: 73.2399 deg

Mean anomaly: 287.2398 deg

Mean motion: 14.00880559 rev/day

Mean motion (dot): 0.00002747 rev/day2

B* drag term: 0.0018832735 1/REarth

Two-line elements (TLE)

Creation date: Oct. 19, 2025, 2:20 a.m.

Reference frame: TEME

Reference center: EARTH

Epoch: Oct. 18, 2025, 6:22 p.m. UTC

TLE line 0: 0 COSMOS 1375 DEB

TLE line 1: 1 17794U 82055AL 25291.76550334 .00002747 00000-0 18833-2 0 9995

TLE line 2: 2 17794 65.8159 169.5686 0033958 73.2399 287.2398 14.00880559 18419

Live tracking on map

Real-time ground track for satellite COSMOS 1375 DEB.

In-orbit conjunctions

A list of the most updated potential collisions computed for object COSMOS 1375 DEB.

Target Orbit TCA Probability of collision Miss distance Type
METEOR 1-14 LEO 2025-07-05 06:25:23 0.001436476 115.0 (m) PAYLOAD
IRS 1B SSO 2024-09-29 21:30:55 0.0001577137 531.0 (m) PAYLOAD
FENGYUN 1C DEB SSO 2024-09-26 15:52:30 0.0004379409 973.0 (m) DEBRIS
GGSE 4 LEO 2024-07-06 23:20:38 0.002308427 172.0 (m) PAYLOAD

Associated space launch

ASAT target satellite

COSMOS 1375 DEB was lifted into orbit during the mission ‘Kosmos-3M | DS-P1-M 16’, on board a Kosmos-3M space rocket.

The launch took place on June 6, 1982, 5:10 p.m. from 132/2.

For more information about the launch, click the button.

Launch to space Kosmos-3M | DS-P1-M 16
Kosmos-3M | DS-P1-M 16

Agency: N/A

Status: Launch Successful

Launch date: June 6, 1982, 5:10 p.m. UTC

Rocket: Kosmos-3M

Launch pad: 132/2

Location: Plesetsk Cosmodrome, Russian Federation

...

Latest news about this satellite

There are no fresh news available about this satellite. Check back as we update our databases every day.


Newsletter sign-up

Weekly statistics, charts and insights to help you stay on top of the space industry.